Time,TemperatureF,DewpointF,PressureIn,WindDirection,WindDirectionDegrees,WindSpeedMPH,WindSpeedGustMPH,Humidity,HourlyPrecipIn,Conditions,Clouds,dailyrainin,SoftwareType,DateUTC
2013-04-05 00:00:00,41.7,4.7,30.06,SW,225,2.7,3.1,21,0.00,,---,0.00,VWS V14.01,2013-04-05 04:00:00,
2013-04-05 00:05:00,41.7,4.7,30.06,SSE,158,1.1,3.1,21,0.00,,---,0.00,VWS V14.01,2013-04-05 04:05:00,
2013-04-05 00:10:00,41.7,4.7,30.06,SSW,202,1.1,2.5,21,0.00,,---,0.00,VWS V14.01,2013-04-05 04:10:00,
2013-04-05 00:15:00,41.7,4.7,30.06,SSW,202,5.6,5.6,21,0.00,,---,0.00,VWS V14.01,2013-04-05 04:15:00,
2013-04-05 00:20:00,41.7,4.7,30.06,SW,225,4.0,5.6,21,0.00,,---,0.00,VWS V14.01,2013-04-05 04:20:00,
2013-04-05 00:21:00,41.9,4.8,30.06,SW,225,4.0,6.0,21,0.00,,---,0.00,VWS V14.01,2013-04-05 04:21:00,
2013-04-05 00:26:00,41.9,4.8,30.06,SSW,202,3.6,6.0,21,0.00,,---,0.00,VWS V14.01,2013-04-05 04:26:00,
2013-04-05 00:30:00,41.9,4.8,30.06,SSW,202,2.5,6.0,21,0.00,,---,0.00,VWS V14.01,2013-04-05 04:30:00,
2013-04-05 00:31:00,41.9,4.8,30.03,SW,225,2.9,3.4,21,0.00,,---,0.00,VWS V14.01,2013-04-05 04:31:00,
2013-04-05 00:36:00,41.9,4.8,30.03,SW,225,2.7,7.8,21,0.00,,---,0.00,VWS V14.01,2013-04-05 04:36:00,
2013-04-05 00:40:00,41.9,4.8,30.03,WSW,248,2.7,7.8,21,0.00,,---,0.00,VWS V14.01,2013-04-05 04:40:00,
2013-04-05 00:41:00,41.9,4.8,30.03,SW,225,2.2,4.3,21,0.00,,---,0.00,VWS V14.01,2013-04-05 04:41:00,
2013-04-05 00:47:00,41.9,4.8,30.03,SW,225,2.9,4.3,21,0.00,,---,0.00,VWS V14.01,2013-04-05 04:47:00,
2013-04-05 00:50:00,41.9,4.8,30.03,SW,225,2.0,4.3,21,0.00,,---,0.00,VWS V14.01,2013-04-05 04:50:00,
2013-04-05 00:52:00,41.7,4.7,30.03,SW,225,2.0,4.0,21,0.00,,---,0.00,VWS V14.01,2013-04-05 04:52:00,
2013-04-05 00:57:00,41.7,4.7,30.03,West,270,0.9,5.4,21,0.00,,---,0.00,VWS V14.01,2013-04-05 04:57:00,
2013-04-05 01:00:00,41.7,4.7,30.03,SW,225,1.3,5.4,21,0.00,,---,0.00,VWS V14.01,2013-04-05 05:00:00,
2013-04-05 01:02:00,41.7,4.7,30.06,SW,225,4.0,5.8,21,0.00,,---,0.00,VWS V14.01,2013-04-05 05:02:00,
2013-04-05 01:07:00,41.7,4.7,30.06,SSW,202,3.6,7.2,21,0.00,,---,0.00,VWS V14.01,2013-04-05 05:07:00,
2013-04-05 01:10:00,41.7,4.7,30.06,SSW,202,3.6,7.2,21,0.00,,---,0.00,VWS V14.01,2013-04-05 05:10:00,
2013-04-05 01:12:00,41.7,4.7,30.06,SW,225,2.7,4.9,21,0.00,,---,0.00,VWS V14.01,2013-04-05 05:12:00,
2013-04-05 01:17:00,41.7,4.7,30.00,SSW,202,1.6,1.6,21,0.00,,---,0.00,VWS V14.01,2013-04-05 05:17:00,
2013-04-05 01:20:00,41.7,4.7,30.00,SSE,158,1.3,4.9,21,0.00,,---,0.00,VWS V14.01,2013-04-05 05:20:00,
2013-04-05 01:22:00,41.7,4.7,30.00,SW,225,3.4,5.8,21,0.00,,---,0.00,VWS V14.01,2013-04-05 05:22:00,
2013-04-05 01:27:00,41.5,4.5,30.00,South,180,3.8,5.4,21,0.00,,---,0.00,VWS V14.01,2013-04-05 05:27:00,
2013-04-05 01:30:00,41.5,4.5,30.00,SW,225,3.4,5.8,21,0.00,,---,0.00,VWS V14.01,2013-04-05 05:30:00,
2013-04-05 01:32:00,41.5,4.5,30.06,SW,225,0.0,5.4,21,0.00,,---,0.00,VWS V14.01,2013-04-05 05:32:00,
2013-04-05 01:38:00,41.5,4.5,30.06,East,90,3.8,3.8,21,0.00,,---,0.00,VWS V14.01,2013-04-05 05:38:00,
2013-04-05 01:40:00,41.5,4.5,30.06,SSW,202,3.8,5.4,21,0.00,,---,0.00,VWS V14.01,2013-04-05 05:40:00,
2013-04-05 01:43:00,41.5,4.5,30.06,SW,225,7.4,7.4,21,0.00,,---,0.00,VWS V14.01,2013-04-05 05:43:00,
2013-04-05 01:48:00,41.5,4.5,30.03,SSW,202,3.1,4.0,21,0.00,,---,0.00,VWS V14.01,2013-04-05 05:48:00,
2013-04-05 01:50:00,41.5,4.5,30.03,South,180,4.0,7.4,21,0.00,,---,0.00,VWS V14.01,2013-04-05 05:50:00,
2013-04-05 01:53:00,41.5,4.5,30.03,SSW,202,1.6,4.0,21,0.00,,---,0.00,VWS V14.01,2013-04-05 05:53:00,
2013-04-05 01:58:00,41.5,4.5,30.03,SSW,202,4.9,4.9,21,0.00,,---,0.00,VWS V14.01,2013-04-05 05:58:00,
2013-04-05 02:00:00,41.5,4.5,30.03,SW,225,2.9,5.6,21,0.00,,---,0.00,VWS V14.01,2013-04-05 06:00:00,
2013-04-05 02:03:00,41.5,4.5,30.00,South,180,2.2,4.9,21,0.00,,---,0.00,VWS V14.01,2013-04-05 06:03:00,
2013-04-05 02:08:00,41.5,4.5,30.00,SW,225,2.9,3.4,21,0.00,,---,0.00,VWS V14.01,2013-04-05 06:08:00,
2013-04-05 02:10:00,41.5,4.5,30.00,SSW,202,3.4,4.9,21,0.00,,---,0.00,VWS V14.01,2013-04-05 06:10:00,
2013-04-05 02:13:00,41.5,4.5,30.00,South,180,2.5,4.3,21,0.00,,---,0.00,VWS V14.01,2013-04-05 06:13:00,
2013-04-05 02:19:00,41.5,4.5,30.00,SW,225,6.5,7.6,21,0.00,,---,0.00,VWS V14.01,2013-04-05 06:19:00,
2013-04-05 02:20:00,41.5,4.5,30.00,SSW,202,3.1,4.3,21,0.00,,---,0.00,VWS V14.01,2013-04-05 06:20:00,
2013-04-05 02:24:00,41.5,4.5,30.00,SW,225,8.7,8.7,21,0.00,,---,0.00,VWS V14.01,2013-04-05 06:24:00,
2013-04-05 02:29:00,41.4,4.4,30.00,SW,225,6.9,6.9,21,0.00,,---,0.00,VWS V14.01,2013-04-05 06:29:00,
2013-04-05 02:30:00,41.4,4.4,30.00,SSW,202,5.6,8.7,21,0.00,,---,0.00,VWS V14.01,2013-04-05 06:30:00,
2013-04-05 02:34:00,41.4,4.4,29.97,SW,225,3.4,6.9,21,0.00,,---,0.00,VWS V14.01,2013-04-05 06:34:00,
2013-04-05 02:40:00,41.4,4.4,29.97,SSW,202,3.4,5.8,21,0.00,,---,0.00,VWS V14.01,2013-04-05 06:40:00,
2013-04-05 02:45:00,41.4,4.4,29.97,SSW,202,4.3,5.8,21,0.00,,---,0.00,VWS V14.01,2013-04-05 06:45:00,
2013-04-05 02:50:00,41.4,4.4,29.97,SSW,202,1.6,4.0,21,0.00,,---,0.00,VWS V14.01,2013-04-05 06:50:00,
2013-04-05 02:55:00,41.0,4.1,29.97,SW,225,3.4,7.4,21,0.00,,---,0.00,VWS V14.01,2013-04-05 06:55:00,
2013-04-05 03:00:00,41.0,4.1,29.97,SSW,202,2.9,4.3,21,0.00,,---,0.00,VWS V14.01,2013-04-05 07:00:00,
2013-04-05 03:05:00,40.6,3.8,29.97,SW,225,3.8,6.0,21,0.00,,---,0.00,VWS V14.01,2013-04-05 07:05:00,
2013-04-05 03:10:00,40.5,3.6,29.97,SW,225,4.3,5.4,21,0.00,,---,0.00,VWS V14.01,2013-04-05 07:10:00,
2013-04-05 03:15:00,40.3,3.5,29.97,SSW,202,2.5,5.6,21,0.00,,---,0.00,VWS V14.01,2013-04-05 07:15:00,
2013-04-05 03:20:00,40.1,5.3,29.97,SSW,202,2.5,5.4,23,0.00,,---,0.00,VWS V14.01,2013-04-05 07:20:00,
2013-04-05 03:25:00,39.9,5.1,29.97,SSW,202,2.5,5.6,23,0.00,,---,0.00,VWS V14.01,2013-04-05 07:25:00,
2013-04-05 03:30:00,39.6,7.5,29.97,SW,225,3.6,6.0,26,0.00,,---,0.00,VWS V14.01,2013-04-05 07:30:00,
2013-04-05 03:36:00,39.4,7.4,29.97,SW,225,3.6,6.0,26,0.00,,---,0.00,VWS V14.01,2013-04-05 07:36:00,
2013-04-05 03:40:00,39.4,9.0,29.97,SW,225,2.5,6.0,28,0.00,,---,0.00,VWS V14.01,2013-04-05 07:40:00,
2013-04-05 03:41:00,39.4,9.0,29.97,SW,225,2.7,5.8,28,0.00,,---,0.00,VWS V14.01,2013-04-05 07:41:00,
2013-04-05 03:46:00,39.2,9.6,29.97,SSW,202,3.4,5.8,29,0.00,,---,0.00,VWS V14.01,2013-04-05 07:46:00,
2013-04-05 03:50:00,39.2,9.6,29.97,SSW,202,3.4,5.8,29,0.00,,---,0.00,VWS V14.01,2013-04-05 07:50:00,
2013-04-05 03:52:00,39.2,9.6,29.97,SW,225,2.0,6.0,29,0.00,,---,0.00,VWS V14.01,2013-04-05 07:52:00,
2013-04-05 03:57:00,39.0,10.2,29.97,SSW,202,2.7,6.3,30,0.00,,---,0.00,VWS V14.01,2013-04-05 07:57:00,
2013-04-05 04:00:00,39.0,10.2,29.97,SSW,202,2.0,6.3,30,0.00,,---,0.00,VWS V14.01,2013-04-05 08:00:00,
2013-04-05 04:02:00,38.8,10.8,29.97,SSW,202,2.5,5.4,31,0.00,,---,0.00,VWS V14.01,2013-04-05 08:02:00,
2013-04-05 04:07:00,38.8,10.8,29.97,SSW,202,1.1,5.4,31,0.00,,---,0.00,VWS V14.01,2013-04-05 08:07:00,
2013-04-05 04:10:00,38.8,10.8,29.97,SE,135,2.0,5.4,31,0.00,,---,0.00,VWS V14.01,2013-04-05 08:10:00,
2013-04-05 04:12:00,38.8,11.5,29.97,SSW,202,2.5,4.0,32,0.00,,---,0.00,VWS V14.01,2013-04-05 08:12:00,
2013-04-05 04:17:00,38.8,12.2,29.94,SW,225,3.1,4.0,33,0.00,,---,0.00,VWS V14.01,2013-04-05 08:17:00,
2013-04-05 04:20:00,38.8,12.2,29.94,SW,225,3.1,4.0,33,0.00,,---,0.00,VWS V14.01,2013-04-05 08:20:00,
2013-04-05 04:22:00,38.7,12.1,29.94,SW,225,1.6,3.1,33,0.00,,---,0.00,VWS V14.01,2013-04-05 08:22:00,
2013-04-05 04:27:00,38.7,12.7,29.94,SSW,202,2.0,2.5,34,0.00,,---,0.00,VWS V14.01,2013-04-05 08:27:00,
2013-04-05 04:30:00,38.7,12.7,29.94,WSW,248,2.5,3.8,34,0.00,,---,0.00,VWS V14.01,2013-04-05 08:30:00,
2013-04-05 04:32:00,38.5,12.6,29.94,SSW,202,2.2,2.9,34,0.00,,---,0.00,VWS V14.01,2013-04-05 08:32:00,
2013-04-05 04:37:00,38.5,13.2,29.94,SW,225,2.9,2.9,35,0.00,,---,0.00,VWS V14.01,2013-04-05 08:37:00,
2013-04-05 04:40:00,38.5,13.2,29.94,SW,225,2.7,3.1,35,0.00,,---,0.00,VWS V14.01,2013-04-05 08:40:00,
2013-04-05 04:42:00,38.5,13.9,29.94,SW,225,2.5,2.9,36,0.00,,---,0.00,VWS V14.01,2013-04-05 08:42:00,
2013-04-05 04:47:00,38.5,13.9,29.94,SSW,202,1.6,1.6,36,0.00,,---,0.00,VWS V14.01,2013-04-05 08:47:00,
2013-04-05 04:50:00,38.5,13.9,29.94,SW,225,1.1,3.6,36,0.00,,---,0.00,VWS V14.01,2013-04-05 08:50:00,
2013-04-05 04:52:00,38.5,13.2,29.94,South,180,0.9,2.0,35,0.00,,---,0.00,VWS V14.01,2013-04-05 08:52:00,
2013-04-05 04:57:00,38.5,13.2,29.94,SE,135,1.6,2.7,35,0.00,,---,0.00,VWS V14.01,2013-04-05 08:57:00,
2013-04-05 05:00:00,38.5,13.2,29.94,SSE,158,2.7,2.7,35,0.00,,---,0.00,VWS V14.01,2013-04-05 09:00:00,
2013-04-05 05:02:00,38.5,13.9,29.91,SSW,202,1.6,2.7,36,0.00,,---,0.00,VWS V14.01,2013-04-05 09:02:00,
2013-04-05 05:07:00,38.3,13.7,29.91,SE,135,0.0,0.0,36,0.00,,---,0.00,VWS V14.01,2013-04-05 09:07:00,
2013-04-05 05:10:00,38.3,13.7,29.91,SE,135,0.0,2.7,36,0.00,,---,0.00,VWS V14.01,2013-04-05 09:10:00,
2013-04-05 05:12:00,38.3,13.1,29.91,SE,135,0.0,1.3,35,0.00,,---,0.00,VWS V14.01,2013-04-05 09:12:00,
2013-04-05 05:18:00,38.5,13.2,29.91,SSW,202,0.0,0.0,35,0.00,,---,0.00,VWS V14.01,2013-04-05 09:18:00,
2013-04-05 05:20:00,38.5,13.2,29.91,SSW,202,0.0,1.3,35,0.00,,---,0.00,VWS V14.01,2013-04-05 09:20:00,
2013-04-05 05:23:00,38.5,13.2,29.91,South,180,0.9,2.2,35,0.00,,---,0.00,VWS V14.01,2013-04-05 09:23:00,
2013-04-05 05:28:00,38.5,13.2,29.91,SSW,202,0.9,1.1,35,0.00,,---,0.00,VWS V14.01,2013-04-05 09:28:00,
2013-04-05 05:30:00,38.5,13.2,29.91,SSW,202,0.9,2.2,35,0.00,,---,0.00,VWS V14.01,2013-04-05 09:30:00,
2013-04-05 05:33:00,38.5,13.2,29.91,South,180,0.0,2.0,35,0.00,,---,0.00,VWS V14.01,2013-04-05 09:33:00,
2013-04-05 05:38:00,38.5,13.2,29.91,South,180,1.3,1.3,35,0.00,,---,0.00,VWS V14.01,2013-04-05 09:38:00,
2013-04-05 05:40:00,38.5,13.2,29.91,South,180,1.3,2.0,35,0.00,,---,0.00,VWS V14.01,2013-04-05 09:40:00,
2013-04-05 05:43:00,38.7,15.3,29.91,South,180,2.5,2.9,38,0.00,,---,0.00,VWS V14.01,2013-04-05 09:43:00,
2013-04-05 05:48:00,38.7,14.6,29.91,SE,135,1.1,2.9,37,0.00,,---,0.00,VWS V14.01,2013-04-05 09:48:00,
2013-04-05 05:50:00,38.7,15.3,29.91,South,180,1.6,3.1,38,0.00,,---,0.00,VWS V14.01,2013-04-05 09:50:00,
2013-04-05 05:54:00,38.7,15.9,29.91,South,180,1.3,3.4,39,0.00,,---,0.00,VWS V14.01,2013-04-05 09:54:00,
2013-04-05 05:59:00,38.7,14.6,29.91,South,180,0.0,2.9,37,0.00,,---,0.00,VWS V14.01,2013-04-05 09:59:00,
2013-04-05 06:00:00,38.7,15.3,29.91,South,180,0.0,3.4,38,0.00,,---,0.00,VWS V14.01,2013-04-05 10:00:00,
2013-04-05 06:04:00,38.7,14.6,29.91,East,90,1.1,2.9,37,0.00,,---,0.00,VWS V14.01,2013-04-05 10:04:00,
2013-04-05 06:09:00,38.5,14.5,29.91,East,90,1.3,2.0,37,0.00,,---,0.00,VWS V14.01,2013-04-05 10:09:00,
2013-04-05 06:10:00,38.7,14.6,29.91,East,90,1.6,2.9,37,0.00,,---,0.00,VWS V14.01,2013-04-05 10:10:00,
2013-04-05 06:14:00,38.5,14.5,29.91,ESE,112,1.3,2.0,37,0.00,,---,0.00,VWS V14.01,2013-04-05 10:14:00,
2013-04-05 06:19:00,38.5,15.7,29.91,South,180,2.2,2.7,39,0.00,,---,0.00,VWS V14.01,2013-04-05 10:19:00,
2013-04-05 06:20:00,38.7,15.9,29.91,SE,135,2.7,2.7,39,0.00,,---,0.00,VWS V14.01,2013-04-05 10:20:00,
2013-04-05 06:24:00,38.7,15.9,29.91,South,180,2.2,2.7,39,0.00,,---,0.00,VWS V14.01,2013-04-05 10:24:00,
2013-04-05 06:29:00,38.7,15.3,29.91,ESE,112,1.6,1.6,38,0.00,,---,0.00,VWS V14.01,2013-04-05 10:29:00,
2013-04-05 06:30:00,38.7,15.3,29.91,South,180,0.0,2.7,38,0.00,,---,0.00,VWS V14.01,2013-04-05 10:30:00,
2013-04-05 06:34:00,38.7,15.3,29.88,NW,315,1.1,2.0,38,0.00,,---,0.00,VWS V14.01,2013-04-05 10:34:00,
2013-04-05 06:39:00,38.5,14.5,29.88,NW,315,0.9,1.3,37,0.00,,---,0.00,VWS V14.01,2013-04-05 10:39:00,
2013-04-05 06:40:00,38.7,14.6,29.88,NW,315,0.0,2.0,37,0.00,,---,0.00,VWS V14.01,2013-04-05 10:40:00,
2013-04-05 06:44:00,38.5,15.1,29.88,WNW,292,0.0,2.9,38,0.00,,---,0.00,VWS V14.01,2013-04-05 10:44:00,
2013-04-05 06:49:00,38.7,15.9,29.88,WNW,292,1.1,2.5,39,0.00,,---,0.00,VWS V14.01,2013-04-05 10:49:00,
2013-04-05 06:50:00,38.7,15.3,29.88,WNW,292,0.9,2.9,38,0.00,,---,0.00,VWS V14.01,2013-04-05 10:50:00,
2013-04-05 06:55:00,38.7,15.3,29.88,NW,315,1.1,2.9,38,0.00,,---,0.00,VWS V14.01,2013-04-05 10:55:00,
2013-04-05 07:00:00,38.7,15.9,29.88,NW,315,1.6,3.1,39,0.00,,---,0.00,VWS V14.01,2013-04-05 11:00:00,
2013-04-05 07:05:00,38.7,15.9,29.91,NNW,338,1.6,3.1,39,0.00,,---,0.00,VWS V14.01,2013-04-05 11:05:00,
2013-04-05 07:10:00,38.7,15.3,29.91,NW,315,1.1,2.5,38,0.00,,---,0.00,VWS V14.01,2013-04-05 11:10:00,
2013-04-05 07:15:00,38.7,15.9,29.91,WNW,292,2.0,3.1,39,0.00,,---,0.00,VWS V14.01,2013-04-05 11:15:00,
2013-04-05 07:20:00,38.7,15.3,29.91,NNW,338,1.3,3.6,38,0.00,,---,0.00,VWS V14.01,2013-04-05 11:20:00,
2013-04-05 07:25:00,38.8,15.4,29.91,NW,315,2.0,4.0,38,0.00,,---,0.00,VWS V14.01,2013-04-05 11:25:00,
2013-04-05 07:30:00,38.8,14.8,29.91,North,0,2.5,3.4,37,0.00,,---,0.00,VWS V14.01,2013-04-05 11:30:00,
2013-04-05 07:36:00,38.8,14.8,29.88,NW,315,2.7,3.6,37,0.00,,---,0.00,VWS V14.01,2013-04-05 11:36:00,
2013-04-05 07:40:00,38.8,14.8,29.88,NW,315,2.5,3.6,37,0.00,,---,0.00,VWS V14.01,2013-04-05 11:40:00,
2013-04-05 07:41:00,39.0,14.3,29.88,NW,315,1.3,2.5,36,0.00,,---,0.00,VWS V14.01,2013-04-05 11:41:00,
2013-04-05 07:46:00,39.2,13.9,29.91,NW,315,3.4,3.6,35,0.00,,---,0.00,VWS V14.01,2013-04-05 11:46:00,
2013-04-05 07:50:00,39.2,13.9,29.91,NW,315,3.8,3.8,35,0.00,,---,0.00,VWS V14.01,2013-04-05 11:50:00,
2013-04-05 07:51:00,39.2,13.9,29.91,NNW,338,1.3,4.3,35,0.00,,---,0.00,VWS V14.01,2013-04-05 11:51:00,
2013-04-05 07:56:00,39.4,13.4,29.91,NW,315,1.1,4.3,34,0.00,,---,0.00,VWS V14.01,2013-04-05 11:56:00,
2013-04-05 08:00:00,39.4,13.4,29.91,North,0,1.3,4.3,34,0.00,,---,0.00,VWS V14.01,2013-04-05 12:00:00,
2013-04-05 08:01:00,39.4,12.7,29.91,NNE,22,3.1,3.8,33,0.00,,---,0.00,VWS V14.01,2013-04-05 12:01:00,
2013-04-05 08:07:00,39.4,12.7,29.91,NW,315,2.5,4.0,33,0.00,,---,0.00,VWS V14.01,2013-04-05 12:07:00,
2013-04-05 08:10:00,39.4,12.7,29.91,NW,315,2.0,4.0,33,0.00,,---,0.00,VWS V14.01,2013-04-05 12:10:00,
2013-04-05 08:12:00,39.6,12.9,29.91,WNW,292,2.7,4.3,33,0.00,,---,0.00,VWS V14.01,2013-04-05 12:12:00,
2013-04-05 08:17:00,39.4,12.0,29.91,NW,315,2.9,4.3,32,0.00,,---,0.00,VWS V14.01,2013-04-05 12:17:00,
2013-04-05 08:20:00,39.4,12.0,29.91,NW,315,2.9,4.3,32,0.00,,---,0.00,VWS V14.01,2013-04-05 12:20:00,
2013-04-05 08:22:00,39.4,12.0,29.91,NW,315,2.5,4.3,32,0.00,,---,0.00,VWS V14.01,2013-04-05 12:22:00,
2013-04-05 08:27:00,39.9,12.5,29.91,North,0,3.1,4.3,32,0.00,,---,0.00,VWS V14.01,2013-04-05 12:27:00,
2013-04-05 08:30:00,39.9,12.5,29.91,North,0,3.1,4.3,32,0.00,,---,0.00,VWS V14.01,2013-04-05 12:30:00,
2013-04-05 08:32:00,40.5,12.2,29.88,NW,315,3.6,4.0,31,0.00,,---,0.00,VWS V14.01,2013-04-05 12:32:00,
2013-04-05 08:37:00,40.8,11.8,29.88,NW,315,3.1,4.0,30,0.00,,---,0.00,VWS V14.01,2013-04-05 12:37:00,
2013-04-05 08:40:00,41.0,12.0,29.88,NW,315,3.4,4.3,30,0.00,,---,0.00,VWS V14.01,2013-04-05 12:40:00,
2013-04-05 08:42:00,41.7,12.6,29.88,ENE,68,1.1,4.0,30,0.00,,---,0.00,VWS V14.01,2013-04-05 12:42:00,
2013-04-05 08:47:00,43.2,13.1,29.88,NNE,22,1.3,2.9,29,0.00,,---,0.00,VWS V14.01,2013-04-05 12:47:00,
2013-04-05 08:50:00,43.2,13.1,29.88,NE,45,2.9,4.0,29,0.00,,---,0.00,VWS V14.01,2013-04-05 12:50:00,
2013-04-05 08:52:00,43.7,12.8,29.88,NE,45,1.1,3.1,28,0.00,,---,0.00,VWS V14.01,2013-04-05 12:52:00,
2013-04-05 08:57:00,43.0,12.1,29.88,NW,315,3.6,5.4,28,0.00,,---,0.00,VWS V14.01,2013-04-05 12:57:00,
2013-04-05 09:00:00,43.0,12.1,29.88,NW,315,5.4,5.4,28,0.00,,---,0.00,VWS V14.01,2013-04-05 13:00:00,
2013-04-05 09:03:00,43.2,12.3,29.85,North,0,0.0,6.5,28,0.00,,---,0.00,VWS V14.01,2013-04-05 13:03:00,
2013-04-05 09:08:00,44.1,13.1,29.85,NNW,338,2.7,4.3,28,0.00,,---,0.00,VWS V14.01,2013-04-05 13:08:00,
2013-04-05 09:10:00,43.9,12.9,29.85,NNW,338,3.1,6.5,28,0.00,,---,0.00,VWS V14.01,2013-04-05 13:10:00,
2013-04-05 09:13:00,44.1,13.1,29.85,East,90,0.0,5.4,28,0.00,,---,0.00,VWS V14.01,2013-04-05 13:13:00,
2013-04-05 09:18:00,44.6,11.0,29.85,NW,315,4.7,5.4,25,0.00,,---,0.00,VWS V14.01,2013-04-05 13:18:00,
2013-04-05 09:20:00,45.0,11.3,29.85,North,0,3.6,5.4,25,0.00,,---,0.00,VWS V14.01,2013-04-05 13:20:00,
2013-04-05 09:23:00,45.0,11.3,29.85,WNW,292,3.8,5.6,25,0.00,,---,0.00,VWS V14.01,2013-04-05 13:23:00,
2013-04-05 09:28:00,45.0,8.4,29.85,North,0,2.7,4.5,22,0.00,,---,0.00,VWS V14.01,2013-04-05 13:28:00,
2013-04-05 09:30:00,44.8,8.3,29.85,NNE,22,4.5,7.2,22,0.00,,---,0.00,VWS V14.01,2013-04-05 13:30:00,
2013-04-05 09:33:00,45.7,9.0,29.85,NNE,22,3.8,6.5,22,0.00,,---,0.00,VWS V14.01,2013-04-05 13:33:00,
2013-04-05 09:39:00,46.0,9.3,29.85,NW,315,5.8,7.8,22,0.00,,---,0.00,VWS V14.01,2013-04-05 13:39:00,
2013-04-05 09:40:00,46.2,9.5,29.85,ENE,68,3.6,6.5,22,0.00,,---,0.00,VWS V14.01,2013-04-05 13:40:00,
2013-04-05 09:44:00,45.9,9.2,29.85,NW,315,5.8,8.7,22,0.00,,---,0.00,VWS V14.01,2013-04-05 13:44:00,
2013-04-05 09:49:00,46.2,9.5,29.82,NW,315,5.6,6.5,22,0.00,,---,0.00,VWS V14.01,2013-04-05 13:49:00,
2013-04-05 09:50:00,46.0,9.3,29.82,WNW,292,3.6,8.7,22,0.00,,---,0.00,VWS V14.01,2013-04-05 13:50:00,
2013-04-05 09:54:00,46.9,10.1,29.82,NNW,338,3.8,6.5,22,0.00,,---,0.00,VWS V14.01,2013-04-05 13:54:00,
2013-04-05 10:00:00,47.3,10.4,29.82,North,0,5.6,5.6,22,0.00,,---,0.00,VWS V14.01,2013-04-05 14:00:00,
2013-04-05 10:05:00,47.7,10.7,29.85,WNW,292,2.7,6.3,22,0.00,,---,0.00,VWS V14.01,2013-04-05 14:05:00,
2013-04-05 10:10:00,48.6,10.4,29.85,NW,315,4.3,4.3,21,0.00,,---,0.00,VWS V14.01,2013-04-05 14:10:00,
2013-04-05 10:15:00,48.4,10.3,29.85,NNW,338,5.8,6.3,21,0.00,,---,0.00,VWS V14.01,2013-04-05 14:15:00,
2013-04-05 10:20:00,48.4,10.3,29.85,NW,315,5.6,6.5,21,0.00,,---,0.00,VWS V14.01,2013-04-05 14:20:00,
2013-04-05 10:25:00,47.7,7.4,29.85,NNW,338,1.1,6.5,19,0.00,,---,0.00,VWS V14.01,2013-04-05 14:25:00,
2013-04-05 10:30:00,48.0,7.7,29.85,North,0,5.6,5.8,19,0.00,,---,0.00,VWS V14.01,2013-04-05 14:30:00,
2013-04-05 10:35:00,48.2,7.9,29.88,North,0,3.4,5.8,19,0.00,,---,0.00,VWS V14.01,2013-04-05 14:35:00,
2013-04-05 10:40:00,49.3,8.8,29.88,West,270,4.3,5.6,19,0.00,,---,0.00,VWS V14.01,2013-04-05 14:40:00,
2013-04-05 10:46:00,49.5,8.9,29.88,NW,315,4.0,5.8,19,0.00,,---,0.00,VWS V14.01,2013-04-05 14:46:00,
2013-04-05 10:50:00,49.5,8.9,29.85,NNW,338,6.0,6.0,19,0.00,,---,0.00,VWS V14.01,2013-04-05 14:50:00,
2013-04-05 10:51:00,50.2,9.5,29.85,North,0,2.9,8.1,19,0.00,,---,0.00,VWS V14.01,2013-04-05 14:51:00,
2013-04-05 10:56:00,50.2,9.5,29.85,NNE,22,6.5,10.7,19,0.00,,---,0.00,VWS V14.01,2013-04-05 14:56:00,
2013-04-05 11:00:00,50.0,9.4,29.85,NW,315,4.3,10.7,19,0.00,,---,0.00,VWS V14.01,2013-04-05 15:00:00,
2013-04-05 11:01:00,50.7,10.0,29.85,West,270,4.3,13.0,19,0.00,,---,0.00,VWS V14.01,2013-04-05 15:01:00,
2013-04-05 11:07:00,51.4,10.6,29.85,NW,315,5.6,13.0,19,0.00,,---,0.00,VWS V14.01,2013-04-05 15:07:00,
2013-04-05 11:10:00,51.4,10.6,29.85,NNW,338,7.4,13.0,19,0.00,,---,0.00,VWS V14.01,2013-04-05 15:10:00,
2013-04-05 11:12:00,51.3,10.4,29.85,NW,315,3.8,7.8,19,0.00,,---,0.00,VWS V14.01,2013-04-05 15:12:00,
2013-04-05 11:17:00,51.8,9.7,29.85,NW,315,4.3,7.8,18,0.00,,---,0.00,VWS V14.01,2013-04-05 15:17:00,
2013-04-05 11:20:00,51.8,9.7,29.85,NW,315,4.3,7.8,18,0.00,,---,0.00,VWS V14.01,2013-04-05 15:20:00,
2013-04-05 11:22:00,52.3,10.1,29.82,NNW,338,5.8,8.7,18,0.00,,---,0.00,VWS V14.01,2013-04-05 15:22:00,
2013-04-05 11:27:00,52.9,10.6,29.82,NW,315,4.3,7.6,18,0.00,,---,0.00,VWS V14.01,2013-04-05 15:27:00,
2013-04-05 11:30:00,52.9,10.6,29.82,NNW,338,7.6,10.7,18,0.00,,---,0.00,VWS V14.01,2013-04-05 15:30:00,
2013-04-05 11:32:00,53.1,10.7,29.82,NW,315,7.2,8.5,18,0.00,,---,0.00,VWS V14.01,2013-04-05 15:32:00,
2013-04-05 11:37:00,53.4,11.0,29.82,NNW,338,6.0,6.3,18,0.00,,---,0.00,VWS V14.01,2013-04-05 15:37:00,
2013-04-05 11:40:00,53.4,11.0,29.82,NW,315,6.3,8.5,18,0.00,,---,0.00,VWS V14.01,2013-04-05 15:40:00,
2013-04-05 11:42:00,53.6,11.1,29.82,NW,315,5.4,7.8,18,0.00,,---,0.00,VWS V14.01,2013-04-05 15:42:00,
2013-04-05 11:47:00,54.1,11.6,29.82,West,270,3.1,6.0,18,0.00,,---,0.00,VWS V14.01,2013-04-05 15:47:00,
2013-04-05 11:50:00,53.8,11.3,29.82,NW,315,6.0,8.5,18,0.00,,---,0.00,VWS V14.01,2013-04-05 15:50:00,
2013-04-05 11:53:00,54.1,11.6,29.82,NNW,338,6.0,9.2,18,0.00,,---,0.00,VWS V14.01,2013-04-05 15:53:00,
2013-04-05 11:58:00,54.9,12.2,29.82,NNW,338,6.0,7.4,18,0.00,,---,0.00,VWS V14.01,2013-04-05 15:58:00,
2013-04-05 12:00:00,55.0,12.3,29.82,WNW,292,3.8,9.2,18,0.00,,---,0.00,VWS V14.01,2013-04-05 16:00:00,
2013-04-05 12:03:00,55.0,12.3,29.82,NE,45,7.4,10.5,18,0.00,,---,0.00,VWS V14.01,2013-04-05 16:03:00,
2013-04-05 12:08:00,55.8,11.6,29.82,WNW,292,7.4,7.4,17,0.00,,---,0.00,VWS V14.01,2013-04-05 16:08:00,
2013-04-05 12:10:00,55.8,11.6,29.82,East,90,1.3,10.5,17,0.00,,---,0.00,VWS V14.01,2013-04-05 16:10:00,
2013-04-05 12:13:00,56.5,12.2,29.82,NW,315,3.6,7.4,17,0.00,,---,0.00,VWS V14.01,2013-04-05 16:13:00,
2013-04-05 12:18:00,56.1,11.9,29.79,NW,315,3.8,7.6,17,0.00,,---,0.00,VWS V14.01,2013-04-05 16:18:00,
2013-04-05 12:20:00,55.8,11.6,29.80,North,0,5.6,8.5,17,0.00,,---,0.00,VWS V14.01,2013-04-05 16:20:00,
2013-04-05 12:23:00,57.0,12.7,29.79,NNW,338,5.4,9.2,17,0.00,,---,0.00,VWS V14.01,2013-04-05 16:23:00,
2013-04-05 12:29:00,56.7,12.4,29.79,North,0,6.0,8.7,17,0.00,,---,0.00,VWS V14.01,2013-04-05 16:29:00,
2013-04-05 12:30:00,56.7,12.4,29.80,East,90,3.1,9.2,17,0.00,,---,0.00,VWS V14.01,2013-04-05 16:30:00,
2013-04-05 12:35:00,56.1,11.9,29.76,North,0,7.2,12.8,17,0.00,,---,0.00,VWS V14.01,2013-04-05 16:35:00,
2013-04-05 12:40:00,56.3,12.1,29.76,NNW,338,4.0,11.0,17,0.00,,---,0.00,VWS V14.01,2013-04-05 16:40:00,
2013-04-05 12:45:00,57.2,12.8,29.76,NNW,338,5.6,11.0,17,0.00,,---,0.00,VWS V14.01,2013-04-05 16:45:00,
2013-04-05 12:50:00,57.6,13.1,29.79,West,270,3.6,6.5,17,0.00,,---,0.00,VWS V14.01,2013-04-05 16:50:00,
2013-04-05 12:55:00,57.6,13.1,29.79,WSW,248,6.9,11.0,17,0.00,,---,0.00,VWS V14.01,2013-04-05 16:55:00,
2013-04-05 13:00:00,58.1,13.5,29.79,North,0,2.7,9.8,17,0.00,,---,0.00,VWS V14.01,2013-04-05 17:00:00,
2013-04-05 13:05:00,57.9,13.4,29.79,NW,315,10.3,12.1,17,0.00,,---,0.00,VWS V14.01,2013-04-05 17:05:00,
2013-04-05 13:10:00,58.1,13.5,29.79,North,0,6.3,11.0,17,0.00,,---,0.00,VWS V14.01,2013-04-05 17:10:00,
2013-04-05 13:15:00,58.3,13.7,29.79,NW,315,5.6,11.9,17,0.00,,---,0.00,VWS V14.01,2013-04-05 17:15:00,
2013-04-05 13:20:00,58.6,14.0,29.76,NNW,338,5.4,11.9,17,0.00,,---,0.00,VWS V14.01,2013-04-05 17:20:00,
2013-04-05 13:26:00,58.1,13.5,29.76,NW,315,3.8,11.9,17,0.00,,---,0.00,VWS V14.01,2013-04-05 17:26:00,
2013-04-05 13:30:00,58.3,13.7,29.76,NW,315,4.9,11.9,17,0.00,,---,0.00,VWS V14.01,2013-04-05 17:30:00,
2013-04-05 13:31:00,59.0,14.3,29.76,NNE,22,3.6,9.4,17,0.00,,---,0.00,VWS V14.01,2013-04-05 17:31:00,
2013-04-05 13:36:00,59.5,14.7,29.76,North,0,3.6,11.9,17,0.00,,---,0.00,VWS V14.01,2013-04-05 17:36:00,
2013-04-05 13:40:00,59.4,14.6,29.76,WNW,292,5.8,11.9,17,0.00,,---,0.00,VWS V14.01,2013-04-05 17:40:00,
2013-04-05 13:42:00,59.2,14.4,29.76,NNW,338,6.3,13.0,17,0.00,,---,0.00,VWS V14.01,2013-04-05 17:42:00,
2013-04-05 13:47:00,59.4,14.6,29.74,NW,315,8.5,13.0,17,0.00,,---,0.00,VWS V14.01,2013-04-05 17:47:00,
2013-04-05 13:50:00,59.4,14.6,29.74,NW,315,6.3,13.0,17,0.00,,---,0.00,VWS V14.01,2013-04-05 17:50:00,
2013-04-05 13:52:00,60.1,15.1,29.74,West,270,3.6,12.8,17,0.00,,---,0.00,VWS V14.01,2013-04-05 17:52:00,
2013-04-05 13:57:00,60.3,15.3,29.74,WNW,292,8.7,13.2,17,0.00,,---,0.00,VWS V14.01,2013-04-05 17:57:00,
2013-04-05 14:00:00,60.3,15.3,29.74,WNW,292,8.7,13.2,17,0.00,,---,0.00,VWS V14.01,2013-04-05 18:00:00,
2013-04-05 14:02:00,60.3,15.3,29.76,NW,315,3.4,8.7,17,0.00,,---,0.00,VWS V14.01,2013-04-05 18:02:00,
2013-04-05 14:07:00,60.8,14.4,29.76,WNW,292,4.0,4.0,16,0.00,,---,0.00,VWS V14.01,2013-04-05 18:07:00,
2013-04-05 14:10:00,60.8,14.4,29.76,WNW,292,4.0,8.7,16,0.00,,---,0.00,VWS V14.01,2013-04-05 18:10:00,
2013-04-05 14:12:00,61.0,14.5,29.76,NW,315,3.1,8.5,16,0.00,,---,0.00,VWS V14.01,2013-04-05 18:12:00,
2013-04-05 14:17:00,61.5,14.9,29.74,NNW,338,5.6,5.6,16,0.00,,---,0.00,VWS V14.01,2013-04-05 18:17:00,
2013-04-05 14:20:00,61.5,14.9,29.74,NNW,338,5.6,8.5,16,0.00,,---,0.00,VWS V14.01,2013-04-05 18:20:00,
2013-04-05 14:22:00,61.7,15.1,29.74,NNW,338,6.5,10.1,16,0.00,,---,0.00,VWS V14.01,2013-04-05 18:22:00,
2013-04-05 14:27:00,61.3,14.8,29.74,West,270,9.0,9.0,16,0.00,,---,0.00,VWS V14.01,2013-04-05 18:27:00,
2013-04-05 14:30:00,61.7,15.1,29.74,NW,315,3.6,10.1,16,0.00,,---,0.00,VWS V14.01,2013-04-05 18:30:00,
2013-04-05 14:32:00,61.3,14.8,29.74,NW,315,6.5,14.3,16,0.00,,---,0.00,VWS V14.01,2013-04-05 18:32:00,
2013-04-05 14:37:00,61.7,15.1,29.74,NW,315,9.8,10.1,16,0.00,,---,0.00,VWS V14.01,2013-04-05 18:37:00,
2013-04-05 14:40:00,61.7,15.1,29.74,NW,315,10.1,14.3,16,0.00,,---,0.00,VWS V14.01,2013-04-05 18:40:00,
2013-04-05 14:42:00,61.2,14.6,29.74,NW,315,7.6,13.2,16,0.00,,---,0.00,VWS V14.01,2013-04-05 18:42:00,
2013-04-05 14:47:00,61.5,14.9,29.74,NNW,338,8.5,19.9,16,0.00,,---,0.00,VWS V14.01,2013-04-05 18:47:00,
2013-04-05 14:50:00,61.3,14.8,29.74,North,0,19.9,19.9,16,0.00,,---,0.00,VWS V14.01,2013-04-05 18:50:00,
2013-04-05 14:52:00,61.9,15.2,29.74,West,270,3.4,19.9,16,0.00,,---,0.00,VWS V14.01,2013-04-05 18:52:00,
2013-04-05 14:57:00,61.5,14.9,29.74,NNW,338,14.1,14.1,16,0.00,,---,0.00,VWS V14.01,2013-04-05 18:57:00,
2013-04-05 15:00:00,61.5,14.9,29.74,NNW,338,10.1,19.9,16,0.00,,---,0.00,VWS V14.01,2013-04-05 19:00:00,
2013-04-05 15:03:00,62.1,15.4,29.74,NW,315,8.1,14.8,16,0.00,,---,0.00,VWS V14.01,2013-04-05 19:03:00,
2013-04-05 15:08:00,61.9,15.2,29.74,NW,315,3.1,8.5,16,0.00,,---,0.00,VWS V14.01,2013-04-05 19:08:00,
2013-04-05 15:10:00,61.7,15.1,29.74,NW,315,5.4,14.8,16,0.00,,---,0.00,VWS V14.01,2013-04-05 19:10:00,
2013-04-05 15:13:00,62.4,15.7,29.74,WNW,292,4.3,14.8,16,0.00,,---,0.00,VWS V14.01,2013-04-05 19:13:00,
2013-04-05 15:18:00,61.5,14.9,29.74,WNW,292,7.4,12.3,16,0.00,,---,0.00,VWS V14.01,2013-04-05 19:18:00,
2013-04-05 15:20:00,61.9,15.2,29.74,NE,45,8.1,14.8,16,0.00,,---,0.00,VWS V14.01,2013-04-05 19:20:00,
2013-04-05 15:23:00,61.9,15.2,29.74,North,0,7.2,12.3,16,0.00,,---,0.00,VWS V14.01,2013-04-05 19:23:00,
2013-04-05 15:28:00,63.0,16.1,29.74,NNW,338,5.4,8.5,16,0.00,,---,0.00,VWS V14.01,2013-04-05 19:28:00,
2013-04-05 15:30:00,62.8,15.9,29.74,NW,315,5.6,12.3,16,0.00,,---,0.00,VWS V14.01,2013-04-05 19:30:00,
2013-04-05 15:33:00,63.0,16.1,29.74,NW,315,8.5,13.4,16,0.00,,---,0.00,VWS V14.01,2013-04-05 19:33:00,
2013-04-05 15:38:00,62.4,15.7,29.74,North,0,4.9,7.4,16,0.00,,---,0.00,VWS V14.01,2013-04-05 19:38:00,
2013-04-05 15:40:00,62.1,15.4,29.74,WNW,292,4.9,13.6,16,0.00,,---,0.00,VWS V14.01,2013-04-05 19:40:00,
2013-04-05 15:43:00,62.1,15.4,29.74,NW,315,11.0,19.5,16,0.00,,---,0.00,VWS V14.01,2013-04-05 19:43:00,
2013-04-05 15:48:00,62.2,15.5,29.74,NNW,338,9.6,9.6,16,0.00,,---,0.00,VWS V14.01,2013-04-05 19:48:00,
2013-04-05 15:50:00,62.2,15.5,29.74,NW,315,8.1,19.5,16,0.00,,---,0.00,VWS V14.01,2013-04-05 19:50:00,
2013-04-05 15:54:00,62.4,15.7,29.74,West,270,2.9,13.2,16,0.00,,---,0.00,VWS V14.01,2013-04-05 19:54:00,
2013-04-05 15:59:00,63.0,16.1,29.74,West,270,5.8,10.7,16,0.00,,---,0.00,VWS V14.01,2013-04-05 19:59:00,
2013-04-05 16:00:00,62.4,15.7,29.74,West,270,5.4,20.6,16,0.00,,---,0.00,VWS V14.01,2013-04-05 20:00:00,
2013-04-05 16:04:00,63.0,16.1,29.74,West,270,7.8,12.8,16,0.00,,---,0.00,VWS V14.01,2013-04-05 20:04:00,
2013-04-05 16:09:00,61.7,15.1,29.74,NW,315,13.2,13.2,16,0.00,,---,0.00,VWS V14.01,2013-04-05 20:09:00,
2013-04-05 16:10:00,61.9,15.2,29.74,NW,315,5.4,16.8,16,0.00,,---,0.00,VWS V14.01,2013-04-05 20:10:00,
2013-04-05 16:14:00,61.5,14.9,29.74,WSW,248,15.2,15.4,16,0.00,,---,0.00,VWS V14.01,2013-04-05 20:14:00,
2013-04-05 16:20:00,61.7,15.1,29.74,West,270,7.4,12.5,16,0.00,,---,0.00,VWS V14.01,2013-04-05 20:20:00,
2013-04-05 16:25:00,61.3,14.8,29.74,West,270,6.0,13.2,16,0.00,,---,0.00,VWS V14.01,2013-04-05 20:25:00,
2013-04-05 16:30:00,61.7,15.1,29.74,WNW,292,10.3,12.3,16,0.00,,---,0.00,VWS V14.01,2013-04-05 20:30:00,
2013-04-05 16:35:00,61.5,14.9,29.74,NNW,338,10.1,13.0,16,0.00,,---,0.00,VWS V14.01,2013-04-05 20:35:00,
2013-04-05 16:40:00,61.2,14.6,29.74,NW,315,6.5,13.2,16,0.00,,---,0.00,VWS V14.01,2013-04-05 20:40:00,
2013-04-05 16:45:00,61.3,14.8,29.74,NE,45,7.4,13.2,16,0.00,,---,0.00,VWS V14.01,2013-04-05 20:45:00,
2013-04-05 16:50:00,61.0,14.5,29.74,West,270,10.7,17.7,16,0.00,,---,0.00,VWS V14.01,2013-04-05 20:50:00,
2013-04-05 16:55:00,61.3,14.8,29.74,WNW,292,4.9,17.7,16,0.00,,---,0.00,VWS V14.01,2013-04-05 20:55:00,
2013-04-05 17:00:00,61.7,15.1,29.74,NW,315,3.1,17.7,16,0.00,,---,0.00,VWS V14.01,2013-04-05 21:00:00,
2013-04-05 17:01:00,61.7,15.1,29.74,West,270,7.6,13.4,16,0.00,,---,0.00,VWS V14.01,2013-04-05 21:01:00,
2013-04-05 17:07:00,61.5,14.9,29.71,West,270,7.8,14.8,16,0.00,,---,0.00,VWS V14.01,2013-04-05 21:07:00,
2013-04-05 17:10:00,61.3,14.8,29.71,WNW,292,6.7,14.8,16,0.00,,---,0.00,VWS V14.01,2013-04-05 21:10:00,
2013-04-05 17:12:00,61.5,14.9,29.71,WNW,292,12.8,15.2,16,0.00,,---,0.00,VWS V14.01,2013-04-05 21:12:00,
2013-04-05 17:17:00,61.3,14.8,29.74,NW,315,5.8,15.2,16,0.00,,---,0.00,VWS V14.01,2013-04-05 21:17:00,
2013-04-05 17:20:00,61.3,14.8,29.74,NW,315,7.6,15.2,16,0.00,,---,0.00,VWS V14.01,2013-04-05 21:20:00,
2013-04-05 17:22:00,61.2,14.6,29.74,NW,315,10.3,11.9,16,0.00,,---,0.00,VWS V14.01,2013-04-05 21:22:00,
2013-04-05 17:27:00,61.0,14.5,29.74,NW,315,15.2,15.2,16,0.00,,---,0.00,VWS V14.01,2013-04-05 21:27:00,
2013-04-05 17:30:00,61.0,14.5,29.74,NW,315,15.2,16.8,16,0.00,,---,0.00,VWS V14.01,2013-04-05 21:30:00,
2013-04-05 17:32:00,61.0,14.5,29.76,NW,315,5.6,17.5,16,0.00,,---,0.00,VWS V14.01,2013-04-05 21:32:00,
2013-04-05 17:37:00,60.6,15.6,29.76,NW,315,15.2,17.5,17,0.00,,---,0.00,VWS V14.01,2013-04-05 21:37:00,
2013-04-05 17:40:00,60.6,15.6,29.76,NW,315,15.2,17.5,17,0.00,,---,0.00,VWS V14.01,2013-04-05 21:40:00,
2013-04-05 17:42:00,61.0,14.5,29.76,WSW,248,7.6,15.2,16,0.00,,---,0.00,VWS V14.01,2013-04-05 21:42:00,
2013-04-05 17:47:00,60.6,15.6,29.79,West,270,14.8,14.8,17,0.00,,---,0.00,VWS V14.01,2013-04-05 21:47:00,
2013-04-05 17:50:00,60.6,15.6,29.80,NW,315,13.9,17.2,17,0.00,,---,0.00,VWS V14.01,2013-04-05 21:50:00,
2013-04-05 17:52:00,60.6,15.6,29.79,NW,315,5.8,14.8,17,0.00,,---,0.00,VWS V14.01,2013-04-05 21:52:00,
2013-04-05 17:58:00,60.6,15.6,29.79,WNW,292,8.7,9.8,17,0.00,,---,0.00,VWS V14.01,2013-04-05 21:58:00,
2013-04-05 18:00:00,60.6,15.6,29.80,NW,315,7.2,14.8,17,0.00,,---,0.00,VWS V14.01,2013-04-05 22:00:00,
2013-04-05 18:03:00,60.8,14.4,29.79,North,0,3.8,12.3,16,0.00,,---,0.00,VWS V14.01,2013-04-05 22:03:00,
2013-04-05 18:08:00,60.1,15.1,29.79,NNE,22,6.0,17.0,17,0.00,,---,0.00,VWS V14.01,2013-04-05 22:08:00,
2013-04-05 18:10:00,60.3,15.3,29.80,NW,315,4.9,12.3,17,0.00,,---,0.00,VWS V14.01,2013-04-05 22:10:00,
2013-04-05 18:13:00,59.9,15.0,29.79,NW,315,12.8,17.0,17,0.00,,---,0.00,VWS V14.01,2013-04-05 22:13:00,
2013-04-05 18:19:00,59.7,14.9,29.82,WNW,292,7.8,12.3,17,0.00,,---,0.00,VWS V14.01,2013-04-05 22:19:00,
2013-04-05 18:20:00,59.7,14.9,29.82,NNW,338,12.3,17.0,17,0.00,,---,0.00,VWS V14.01,2013-04-05 22:20:00,
2013-04-05 18:24:00,59.7,14.9,29.82,NW,315,3.6,12.3,17,0.00,,---,0.00,VWS V14.01,2013-04-05 22:24:00,
2013-04-05 18:29:00,59.5,14.7,29.82,WNW,292,7.4,8.5,17,0.00,,---,0.00,VWS V14.01,2013-04-05 22:29:00,
2013-04-05 18:30:00,59.7,14.9,29.82,North,0,5.6,14.3,17,0.00,,---,0.00,VWS V14.01,2013-04-05 22:30:00,
2013-04-05 18:35:00,59.4,14.6,29.82,NW,315,3.6,11.0,17,0.00,,---,0.00,VWS V14.01,2013-04-05 22:35:00,
2013-04-05 18:40:00,59.2,14.4,29.82,North,0,4.7,8.7,17,0.00,,---,0.00,VWS V14.01,2013-04-05 22:40:00,
2013-04-05 18:45:00,59.2,14.4,29.82,NNE,22,3.6,12.5,17,0.00,,---,0.00,VWS V14.01,2013-04-05 22:45:00,
2013-04-05 18:50:00,59.0,14.3,29.79,NW,315,3.8,7.6,17,0.00,,---,0.00,VWS V14.01,2013-04-05 22:50:00,
2013-04-05 18:55:00,58.8,14.1,29.79,WNW,292,5.4,15.4,17,0.00,,---,0.00,VWS V14.01,2013-04-05 22:55:00,
2013-04-05 19:00:00,58.5,13.8,29.79,NW,315,3.8,7.6,17,0.00,,---,0.00,VWS V14.01,2013-04-05 23:00:00,
2013-04-05 19:05:00,58.3,13.7,29.76,NW,315,5.4,8.7,17,0.00,,---,0.00,VWS V14.01,2013-04-05 23:05:00,
2013-04-05 19:10:00,58.1,13.5,29.76,NW,315,8.1,11.0,17,0.00,,---,0.00,VWS V14.01,2013-04-05 23:10:00,
2013-04-05 19:15:00,57.9,13.4,29.76,West,270,9.4,11.0,17,0.00,,---,0.00,VWS V14.01,2013-04-05 23:15:00,
2013-04-05 19:20:00,57.9,13.4,29.80,NW,315,10.1,11.0,17,0.00,,---,0.00,VWS V14.01,2013-04-05 23:20:00,
2013-04-05 19:21:00,57.7,13.2,29.79,NW,315,2.5,10.5,17,0.00,,---,0.00,VWS V14.01,2013-04-05 23:21:00,
2013-04-05 19:26:00,57.4,12.9,29.79,NW,315,3.8,10.5,17,0.00,,---,0.00,VWS V14.01,2013-04-05 23:26:00,
2013-04-05 19:30:00,57.4,12.9,29.80,WNW,292,3.8,10.5,17,0.00,,---,0.00,VWS V14.01,2013-04-05 23:30:00,
2013-04-05 19:31:00,57.4,12.9,29.79,NNW,338,9.8,11.2,17,0.00,,---,0.00,VWS V14.01,2013-04-05 23:31:00,
2013-04-05 19:36:00,57.2,12.8,29.79,NW,315,4.0,11.2,17,0.00,,---,0.00,VWS V14.01,2013-04-05 23:36:00,
2013-04-05 19:40:00,57.2,12.8,29.80,WNW,292,5.4,11.2,17,0.00,,---,0.00,VWS V14.01,2013-04-05 23:40:00,
2013-04-05 19:41:00,57.0,12.7,29.79,NW,315,7.8,8.1,17,0.00,,---,0.00,VWS V14.01,2013-04-05 23:41:00,
2013-04-05 19:46:00,56.8,12.5,29.82,NW,315,3.1,8.1,17,0.00,,---,0.00,VWS V14.01,2013-04-05 23:46:00,
2013-04-05 19:50:00,56.7,12.4,29.82,WNW,292,4.0,8.1,17,0.00,,---,0.00,VWS V14.01,2013-04-05 23:50:00,
2013-04-05 19:52:00,56.7,12.4,29.82,NNW,338,4.3,9.6,17,0.00,,---,0.00,VWS V14.01,2013-04-05 23:52:00,
2013-04-05 19:57:00,56.5,12.2,29.82,NW,315,5.6,9.6,17,0.00,,---,0.00,VWS V14.01,2013-04-05 23:57:00,
2013-04-05 20:00:00,56.5,12.2,29.82,West,270,4.7,9.6,17,0.00,,---,0.00,VWS V14.01,2013-04-06 00:00:00,
2013-04-05 20:02:00,56.3,12.1,29.82,NNW,338,6.0,6.0,17,0.00,,---,0.00,VWS V14.01,2013-04-06 00:02:00,
2013-04-05 20:07:00,55.9,11.8,29.82,NW,315,4.3,6.5,17,0.00,,---,0.00,VWS V14.01,2013-04-06 00:07:00,
2013-04-05 20:10:00,55.9,11.8,29.82,NW,315,4.3,6.5,17,0.00,,---,0.00,VWS V14.01,2013-04-06 00:10:00,
2013-04-05 20:12:00,55.8,11.6,29.82,NW,315,3.1,6.5,17,0.00,,---,0.00,VWS V14.01,2013-04-06 00:12:00,
2013-04-05 20:17:00,55.4,11.3,29.85,WNW,292,2.0,6.5,17,0.00,,---,0.00,VWS V14.01,2013-04-06 00:17:00,
2013-04-05 20:20:00,55.4,11.3,29.85,WNW,292,2.0,6.5,17,0.00,,---,0.00,VWS V14.01,2013-04-06 00:20:00,
2013-04-05 20:22:00,55.2,12.5,29.85,NW,315,3.8,6.0,18,0.00,,---,0.00,VWS V14.01,2013-04-06 00:22:00,
2013-04-05 20:27:00,55.0,12.3,29.85,NNW,338,7.8,7.8,18,0.00,,---,0.00,VWS V14.01,2013-04-06 00:27:00,
2013-04-05 20:30:00,55.0,12.3,29.85,NNW,338,7.8,7.8,18,0.00,,---,0.00,VWS V14.01,2013-04-06 00:30:00,
2013-04-05 20:32:00,55.0,12.3,29.85,North,0,6.0,7.8,18,0.00,,---,0.00,VWS V14.01,2013-04-06 00:32:00,
2013-04-05 20:37:00,54.9,12.2,29.85,NW,315,3.6,4.3,18,0.00,,---,0.00,VWS V14.01,2013-04-06 00:37:00,
2013-04-05 20:40:00,54.9,12.2,29.85,NW,315,4.3,7.8,18,0.00,,---,0.00,VWS V14.01,2013-04-06 00:40:00,
2013-04-05 20:42:00,54.7,12.0,29.85,NW,315,2.5,5.6,18,0.00,,---,0.00,VWS V14.01,2013-04-06 00:42:00,
2013-04-05 20:47:00,54.5,11.9,29.85,NW,315,3.8,6.3,18,0.00,,---,0.00,VWS V14.01,2013-04-06 00:47:00,
2013-04-05 20:50:00,54.5,11.9,29.85,NW,315,6.3,8.1,18,0.00,,---,0.00,VWS V14.01,2013-04-06 00:50:00,
2013-04-05 20:53:00,54.3,11.7,29.85,NW,315,4.0,7.8,18,0.00,,---,0.00,VWS V14.01,2013-04-06 00:53:00,
2013-04-05 20:58:00,54.1,11.6,29.85,West,270,5.8,8.7,18,0.00,,---,0.00,VWS V14.01,2013-04-06 00:58:00,
2013-04-05 21:00:00,54.3,11.7,29.85,WNW,292,5.6,10.3,18,0.00,,---,0.00,VWS V14.01,2013-04-06 01:00:00,
2013-04-05 21:03:00,54.1,11.6,29.88,NW,315,2.9,11.0,18,0.00,,---,0.00,VWS V14.01,2013-04-06 01:03:00,
2013-04-05 21:08:00,54.0,11.4,29.88,NNW,338,4.7,4.7,18,0.00,,---,0.00,VWS V14.01,2013-04-06 01:08:00,
2013-04-05 21:10:00,54.1,11.6,29.88,NNW,338,3.6,11.0,18,0.00,,---,0.00,VWS V14.01,2013-04-06 01:10:00,
2013-04-05 21:13:00,53.6,11.1,29.88,NW,315,6.5,7.8,18,0.00,,---,0.00,VWS V14.01,2013-04-06 01:13:00,
2013-04-05 21:18:00,53.2,10.9,29.91,North,0,5.8,5.8,18,0.00,,---,0.00,VWS V14.01,2013-04-06 01:18:00,
2013-04-05 21:20:00,53.4,11.0,29.91,NW,315,4.0,12.3,18,0.00,,---,0.00,VWS V14.01,2013-04-06 01:20:00,
2013-04-05 21:23:00,53.1,10.7,29.91,North,0,6.5,10.7,18,0.00,,---,0.00,VWS V14.01,2013-04-06 01:23:00,
2013-04-05 21:29:00,52.9,10.6,29.91,North,0,3.4,5.8,18,0.00,,---,0.00,VWS V14.01,2013-04-06 01:29:00,
2013-04-05 21:30:00,52.9,10.6,29.91,NNW,338,2.7,10.7,18,0.00,,---,0.00,VWS V14.01,2013-04-06 01:30:00,
2013-04-05 21:34:00,52.5,10.2,29.91,North,0,4.9,7.8,18,0.00,,---,0.00,VWS V14.01,2013-04-06 01:34:00,
2013-04-05 21:39:00,52.2,10.0,29.91,North,0,4.0,6.9,18,0.00,,---,0.00,VWS V14.01,2013-04-06 01:39:00,
2013-04-05 21:40:00,52.5,10.2,29.91,NW,315,4.3,10.1,18,0.00,,---,0.00,VWS V14.01,2013-04-06 01:40:00,
2013-04-05 21:44:00,51.8,9.7,29.91,NNE,22,5.6,14.8,18,0.00,,---,0.00,VWS V14.01,2013-04-06 01:44:00,
2013-04-05 21:49:00,51.4,10.6,29.91,NNE,22,7.6,12.8,19,0.00,,---,0.00,VWS V14.01,2013-04-06 01:49:00,
2013-04-05 21:50:00,51.6,10.7,29.91,North,0,4.3,14.8,19,0.00,,---,0.00,VWS V14.01,2013-04-06 01:50:00,
2013-04-05 21:54:00,51.3,10.4,29.91,North,0,10.5,15.2,19,0.00,,---,0.00,VWS V14.01,2013-04-06 01:54:00,
2013-04-05 21:59:00,50.7,10.0,29.91,North,0,8.7,8.7,19,0.00,,---,0.00,VWS V14.01,2013-04-06 01:59:00,
2013-04-05 22:00:00,51.1,10.3,29.91,NW,315,6.0,15.2,19,0.00,,---,0.00,VWS V14.01,2013-04-06 02:00:00,
2013-04-05 22:05:00,50.4,9.7,29.91,NW,315,10.5,12.5,19,0.00,,---,0.00,VWS V14.01,2013-04-06 02:05:00,
2013-04-05 22:10:00,49.8,9.2,29.91,NNE,22,8.1,9.8,19,0.00,,---,0.00,VWS V14.01,2013-04-06 02:10:00,
2013-04-05 22:15:00,49.1,8.6,29.91,ENE,68,3.8,12.3,19,0.00,,---,0.00,VWS V14.01,2013-04-06 02:15:00,
2013-04-05 22:20:00,48.9,8.5,29.94,NE,45,6.0,14.5,19,0.00,,---,0.00,VWS V14.01,2013-04-06 02:20:00,
2013-04-05 22:21:00,48.7,8.3,29.94,NW,315,4.0,14.5,19,0.00,,---,0.00,VWS V14.01,2013-04-06 02:21:00,
2013-04-05 22:27:00,48.4,8.0,29.94,West,270,4.0,14.5,19,0.00,,---,0.00,VWS V14.01,2013-04-06 02:27:00,
2013-04-05 22:30:00,48.4,8.0,29.94,West,270,4.0,14.5,19,0.00,,---,0.00,VWS V14.01,2013-04-06 02:30:00,
2013-04-05 22:32:00,47.8,7.6,29.94,South,180,4.3,13.2,19,0.00,,---,0.00,VWS V14.01,2013-04-06 02:32:00,
2013-04-05 22:37:00,47.5,7.3,29.94,WNW,292,6.0,8.5,19,0.00,,---,0.00,VWS V14.01,2013-04-06 02:37:00,
2013-04-05 22:40:00,47.7,7.4,29.94,NW,315,8.5,15.4,19,0.00,,---,0.00,VWS V14.01,2013-04-06 02:40:00,
2013-04-05 22:42:00,47.3,7.1,29.94,North,0,2.0,9.6,19,0.00,,---,0.00,VWS V14.01,2013-04-06 02:42:00,
2013-04-05 22:47:00,46.9,6.8,29.94,NW,315,4.0,9.8,19,0.00,,---,0.00,VWS V14.01,2013-04-06 02:47:00,
2013-04-05 22:50:00,46.9,6.8,29.94,NW,315,9.8,9.8,19,0.00,,---,0.00,VWS V14.01,2013-04-06 02:50:00,
2013-04-05 22:52:00,46.6,6.5,29.94,South,180,4.0,11.0,19,0.00,,---,0.00,VWS V14.01,2013-04-06 02:52:00,
2013-04-05 22:57:00,46.6,6.5,29.94,NNW,338,5.8,7.6,19,0.00,,---,0.00,VWS V14.01,2013-04-06 02:57:00,
2013-04-05 23:00:00,46.6,6.6,29.94,NNE,22,7.6,11.0,19,0.00,,---,0.00,VWS V14.01,2013-04-06 03:00:00,
2013-04-05 23:03:00,46.2,7.4,29.97,WNW,292,2.7,12.3,20,0.00,,---,0.00,VWS V14.01,2013-04-06 03:03:00,
2013-04-05 23:08:00,45.9,7.1,29.97,NNE,22,0.9,1.6,20,0.00,,---,0.00,VWS V14.01,2013-04-06 03:08:00,
2013-04-05 23:10:00,45.9,7.1,29.97,NW,315,1.6,12.3,20,0.00,,---,0.00,VWS V14.01,2013-04-06 03:10:00,
2013-04-05 23:13:00,45.5,6.8,29.97,NNE,22,3.4,5.4,20,0.00,,---,0.00,VWS V14.01,2013-04-06 03:13:00,
2013-04-05 23:18:00,45.3,6.6,29.97,West,270,3.8,5.6,20,0.00,,---,0.00,VWS V14.01,2013-04-06 03:18:00,
2013-04-05 23:20:00,45.3,6.6,29.97,NNW,338,3.8,9.0,20,0.00,,---,0.00,VWS V14.01,2013-04-06 03:20:00,
2013-04-05 23:23:00,45.0,6.3,29.97,NW,315,7.2,7.2,20,0.00,,---,0.00,VWS V14.01,2013-04-06 03:23:00,
2013-04-05 23:28:00,44.8,6.2,29.97,NNE,22,2.9,3.4,20,0.00,,---,0.00,VWS V14.01,2013-04-06 03:28:00,
2013-04-05 23:30:00,44.8,6.2,29.97,North,0,0.0,7.2,20,0.00,,---,0.00,VWS V14.01,2013-04-06 03:30:00,
2013-04-05 23:33:00,44.4,5.9,29.97,NNE,22,4.0,4.0,20,0.00,,---,0.00,VWS V14.01,2013-04-06 03:33:00,
2013-04-05 23:38:00,44.1,5.6,29.97,NE,45,3.8,3.8,20,0.00,,---,0.00,VWS V14.01,2013-04-06 03:38:00,
2013-04-05 23:40:00,44.2,5.7,29.97,NW,315,1.3,5.6,20,0.00,,---,0.00,VWS V14.01,2013-04-06 03:40:00,
2013-04-05 23:43:00,43.7,5.3,29.97,West,270,2.7,6.3,20,0.00,,---,0.00,VWS V14.01,2013-04-06 03:43:00,
2013-04-05 23:49:00,43.5,5.1,29.97,ENE,68,3.4,3.4,20,0.00,,---,0.00,VWS V14.01,2013-04-06 03:49:00,
2013-04-05 23:50:00,43.7,5.3,29.97,WNW,292,1.6,6.3,20,0.00,,---,0.00,VWS V14.01,2013-04-06 03:50:00,
2013-04-05 23:54:00,43.3,5.0,29.97,WSW,248,2.0,4.3,20,0.00,,---,0.00,VWS V14.01,2013-04-06 03:54:00,
2013-04-05 23:59:00,43.2,4.8,29.97,ENE,68,3.8,3.8,20,0.00,,---,0.00,VWS V14.01,2013-04-06 03:59:00,